TIANMU-1 12

Last updated on Fri Sep 11 2026 00:02:39 GMT+0000 (Coordinated Universal Time)

1 58646U 23205B 26253.59890668 .00004097 00000+0 15530-3 0 9996 2 58646 97.3422 273.5649 0008934 56.1696 304.0393 15.27410479150548
UTC large
Height (km)
Speed (km/s)
/
Latitude / Longitude
Inclination (degrees)
Orbital Period (minutes)
Azimuth
Elevation
Range (km)
Doppler Factor

Next 0 passes for location: London (51.5072 / 0.1276)

No passes found over London.
TIANMU-1 12